QPF
0.09 0.09 0.03 0.03 0.03 0.03 0.02 0.01 0.02 0.01 0.01 0.01 0.02 0.02 0.02 0.05 0.08 0.07 0.06 0.03 0.01 0.01 0.01 0.01 0.01 0.01 0.01 0.01 0.01 0.01 0.02 0.03 0.02 0.01 0.02 0.03 0.04 0.04 0.05 0.04 0.03 0.03 0.02
0.04 0.06 0.06 0.04 0.05 0.03 0.02 0.02 0.02 0.01 0.01 0.01 0.01 0.01 0.02 0.03 0.06 0.07 0.07 0.04 0.01 0.01 0.01 0.01 0.01 0.01 0.01 0.01 0.01 0.01 0.02 0.02 0.02 0.01 0.01 0.01 0.01 0.02 0.03 0.05 0.05 0.05 0.04
0.04 0.05 0.05 0.05 0.04 0.03 0.02 0.02 0.02 0.02 0.01 0.01 0.01 0.01 0.02 0.02 0.04 0.07 0.08 0.07 0.03 0.01 0.01 0.02 0.02 0.01 0.01 0.01 0.01 0.01 0.02 0.02 0.02 0.02 0.02 0.02 0.01 0.01 0.02 0.03 0.04 0.04 0.04
0.03 0.04 0.04 0.04 0.04 0.03 0.02 0.01 0.03 0.03 0.02 0.02 0.01 0.01 0.01 0.02 0.03 0.04 0.05 0.06 0.05 0.03 0.01 0.02 0.02 0.02 0.02 0.01 0.01 0.01 0.02 0.02 0.02 0.02 0.02 0.02 0.02 0.02 0.02 0.02 0.03 0.03 0.03
0.02 0.05 0.05 0.04 0.04 0.02 0.02 0.01 0.02 0.02 0.01 0.01 0.00 0.00 0.00 0.01 0.03 0.04 0.04 0.04 0.04 0.04 0.03 0.02 0.02 0.02 0.02 0.02 0.01 0.01 0.01 0.01 0.01 0.02 0.02 0.01 0.01 0.02 0.02 0.01 0.01 0.02 0.02
0.01 0.01 0.03 0.04 0.04 0.02 0.02 0.02 0.02 0.01 0.01 0.01 0.01 0.01 0.01 0.01 0.02 0.03 0.03 0.03 0.03 0.03 0.03 0.02 0.02 0.02 0.02 0.02 0.02 0.01 0.01 0.01 0.01 0.02 0.02 0.02 0.01 0.02 0.02 0.01 0.01 0.01 0.01
0.01 0.01 0.01 0.02 0.02 0.03 0.01 0.02 0.02 0.01 0.01 0.01 0.01 0.01 0.01 0.01 0.02 0.02 0.02 0.02 0.02 0.02 0.03 0.02 0.02 0.02 0.02 0.02 0.03 0.02 0.02 0.02 0.02 0.03 0.02 0.02 0.01 0.02 0.01 0.01 0.01 0.01 0.01
0.01 0.01 0.01 0.01 0.01 0.02 0.02 0.02 0.02 0.01 0.01 0.01 0.01 0.01 0.01 0.01 0.01 0.02 0.03 0.02 0.02 0.02 0.03 0.03 0.03 0.03 0.03 0.03 0.03 0.03 0.03 0.02 0.02 0.02 0.02 0.01 0.02 0.02 0.01 0.01 0.01 0.01 0.00
0.01 0.01 0.01 0.01 0.01 0.01 0.02 0.03 0.03 0.01 0.01 0.01 0.01 0.01 0.01 0.00 0.01 0.01 0.02 0.02 0.02 0.02 0.02 0.04 0.05 0.03 0.04 0.04 0.03 0.04 0.04 0.03 0.03 0.02 0.02 0.02 0.02 0.02 0.01 0.01 0.01 0.00 0.00
0.01 0.01 0.02 0.02 0.01 0.01 0.01 0.02 0.03 0.02 0.01 0.01 0.01 0.01 0.00 0.00 0.01 0.01 0.01 0.01 0.01 0.02 0.02 0.03 0.04 0.05 0.04 0.04 0.03 0.03 0.03 0.03 0.02 0.01 0.01 0.01 0.01 0.01 0.01 0.00 0.00 0.00 0.00
0.01 0.01 0.01 0.02 0.02 0.02 0.02 0.02 0.02 0.03 0.02 0.01 0.01 0.01 0.01 0.01 0.01 0.01 0.01 0.01 0.01 0.01 0.02 0.02 0.02 0.03 0.03 0.03 0.02 0.02 0.01 0.02 0.02 0.02 0.02 0.01 0.01 0.01 0.01 0.01 0.00 0.01 0.01
0.01 0.01 0.01 0.01 0.02 0.02 0.02 0.02 0.02 0.02 0.03 0.02 0.01 0.01 0.01 0.01 0.01 0.01 0.01 0.01 0.02 0.01 0.01 0.01 0.02 0.01 0.01 0.02 0.02 0.02 0.01 0.01 0.01 0.01 0.02 0.02 0.02 0.01 0.01 0.01 0.00 0.01 0.01
0.01 0.01 0.01 0.01 0.01 0.02 0.03 0.04 0.04 0.04 0.03 0.02 0.01 0.01 0.01 0.01 0.01 0.01 0.01 0.01 0.02 0.02 0.02 0.02 0.02 0.02 0.01 0.01 0.01 0.01 0.01 0.01 0.00 0.01 0.01 0.01 0.00 0.00 0.01 0.00 0.01 0.01 0.01
0.01 0.01 0.01 0.01 0.02 0.02 0.02 0.03 0.04 0.06 0.05 0.04 0.02 0.01 0.02 0.01 0.01 0.01 0.01 0.01 0.01 0.01 0.02 0.02 0.01 0.02 0.02 0.01 0.01 0.00 0.00 0.00 0.00 0.00 0.00 0.00 0.00 0.00 0.01 0.01 0.01 0.00 0.01
0.01 0.01 0.01 0.01 0.02 0.02 0.02 0.01 0.02 0.04 0.06 0.07 0.06 0.03 0.03 0.03 0.02 0.02 0.01 0.01 0.01 0.01 0.01 0.01 0.01 0.01 0.02 0.02 0.01 0.01 0.01 0.01 0.01 0.01 0.01 0.01 0.01 0.01 0.01 0.01 0.01 0.01 0.01
0.01 0.01 0.01 0.01 0.01 0.01 0.01 0.01 0.02 0.02 0.03 0.04 0.06 0.06 0.04 0.03 0.03 0.03 0.03 0.02 0.01 0.01 0.01 0.01 0.01 0.01 0.01 0.01 0.01 0.01 0.02 0.02 0.01 0.01 0.01 0.01 0.01 0.01 0.01 0.01 0.01 0.02 0.01
0.01 0.01 0.01 0.01 0.01 0.01 0.01 0.01 0.01 0.01 0.02 0.02 0.03 0.05 0.06 0.05 0.03 0.03 0.04 0.04 0.03 0.02 0.02 0.01 0.01 0.01 0.01 0.01 0.01 0.01 0.01 0.01 0.02 0.02 0.02 0.02 0.02 0.02 0.02 0.02 0.02 0.02 0.02
0.01 0.01 0.01 0.01 0.01 0.01 0.01 0.01 0.01 0.02 0.01 0.02 0.02 0.03 0.05 0.07 0.07 0.06 0.05 0.04 0.04 0.03 0.03 0.03 0.02 0.01 0.01 0.01 0.01 0.01 0.01 0.01 0.01 0.01 0.02 0.02 0.02 0.02 0.02 0.02 0.02 0.02 0.02
0.01 0.01 0.01 0.01 0.01 0.01 0.01 0.02 0.02 0.02 0.02 0.02 0.02 0.02 0.03 0.04 0.05 0.05 0.04 0.04 0.04 0.04 0.04 0.04 0.03 0.02 0.02 0.02 0.02 0.01 0.01 0.01 0.01 0.01 0.01 0.01 0.01 0.02 0.02 0.02 0.02 0.02 0.02
0.01 0.00 0.01 0.01 0.01 0.01 0.01 0.02 0.03 0.03 0.02 0.03 0.03 0.02 0.02 0.02 0.02 0.02 0.02 0.02 0.03 0.03 0.03 0.03 0.03 0.03 0.03 0.03 0.02 0.02 0.01 0.01 0.01 0.01 0.02 0.02 0.01 0.02 0.02 0.02 0.02 0.02 0.02
0.01 0.01 0.00 0.00 0.01 0.01 0.01 0.01 0.02 0.03 0.03 0.03 0.03 0.03 0.03 0.02 0.02 0.02 0.02 0.02 0.02 0.02 0.02 0.03 0.03 0.03 0.02 0.02 0.02 0.03 0.03 0.02 0.01 0.01 0.01 0.02 0.02 0.02 0.02 0.02 0.02 0.02 0.02
0.01 0.01 0.01 0.01 0.01 0.01 0.02 0.02 0.02 0.03 0.03 0.03 0.03 0.02 0.03 0.03 0.02 0.02 0.02 0.03 0.03 0.03 0.03 0.04 0.04 0.04 0.03 0.03 0.02 0.02 0.02 0.02 0.02 0.02 0.02 0.02 0.02 0.02 0.02 0.02 0.02 0.02 0.02
0.01 0.01 0.02 0.02 0.01 0.02 0.02 0.03 0.03 0.02 0.02 0.02 0.02 0.02 0.02 0.02 0.02 0.02 0.02 0.02 0.03 0.03 0.03 0.02 0.02 0.02 0.02 0.02 0.02 0.02 0.02 0.02 0.02 0.02 0.03 0.03 0.02 0.02 0.02 0.02 0.02 0.02 0.02
0.01 0.01 0.01 0.02 0.02 0.02 0.02 0.02 0.02 0.03 0.03 0.02 0.02 0.02 0.02 0.01 0.02 0.02 0.02 0.02 0.02 0.02 0.02 0.02 0.01 0.01 0.01 0.02 0.02 0.02 0.02 0.02 0.01 0.02 0.02 0.02 0.02 0.02 0.02 0.02 0.02 0.03 0.03
0.01 0.01 0.02 0.02 0.02 0.02 0.02 0.02 0.03 0.03 0.04 0.03 0.02 0.02 0.01 0.01 0.01 0.01 0.02 0.02 0.02 0.02 0.03 0.03 0.03 0.03 0.02 0.02 0.02 0.02 0.02 0.03 0.02 0.02 0.02 0.02 0.02 0.02 0.02 0.02 0.02 0.03 0.03
0.02 0.02 0.02 0.03 0.03 0.02 0.03 0.03 0.02 0.03 0.04 0.04 0.03 0.02 0.01 0.01 0.01 0.02 0.02 0.02 0.02 0.03 0.03 0.04 0.04 0.03 0.03 0.03 0.02 0.02 0.02 0.02 0.02 0.02 0.02 0.02 0.02 0.02 0.02 0.02 0.02 0.03 0.03
MSLP
1009.05 1009.79 1010.50 1011.15 1011.71 1012.18 1012.58 1012.95 1013.34 1013.78 1014.32 1014.96 1015.70 1016.49 1017.29 1018.06 1018.76 1019.35 1019.84 1020.24 1020.58 1020.89 1021.23 1021.61 1022.07 1022.60 1023.21 1023.87 1024.58 1025.29 1025.99 1026.66 1027.27 1027.82 1028.30 1028.69 1028.99 1029.21 1029.34 1029.40 1029.39 1029.33 1029.24
1008.79 1009.50 1010.20 1010.85 1011.42 1011.91 1012.33 1012.71 1013.10 1013.54 1014.06 1014.67 1015.36 1016.12 1016.90 1017.65 1018.36 1018.98 1019.51 1019.96 1020.35 1020.71 1021.08 1021.48 1021.93 1022.45 1023.03 1023.66 1024.33 1025.02 1025.70 1026.37 1027.01 1027.60 1028.12 1028.56 1028.92 1029.20 1029.38 1029.47 1029.49 1029.45 1029.36
1008.51 1009.23 1009.93 1010.59 1011.17 1011.67 1012.10 1012.50 1012.89 1013.31 1013.80 1014.36 1015.01 1015.72 1016.46 1017.19 1017.89 1018.53 1019.11 1019.61 1020.06 1020.49 1020.91 1021.36 1021.83 1022.35 1022.92 1023.53 1024.17 1024.83 1025.49 1026.15 1026.78 1027.38 1027.93 1028.41 1028.82 1029.13 1029.36 1029.49 1029.54 1029.52 1029.45
1008.23 1008.96 1009.68 1010.36 1010.96 1011.48 1011.92 1012.31 1012.69 1013.10 1013.55 1014.07 1014.67 1015.32 1016.01 1016.71 1017.40 1018.04 1018.64 1019.20 1019.72 1020.21 1020.70 1021.20 1021.71 1022.25 1022.82 1023.41 1024.02 1024.65 1025.28 1025.91 1026.52 1027.12 1027.68 1028.18 1028.62 1028.98 1029.25 1029.43 1029.52 1029.54 1029.50
1007.92 1008.69 1009.45 1010.16 1010.78 1011.31 1011.76 1012.16 1012.53 1012.91 1013.33 1013.81 1014.35 1014.94 1015.58 1016.23 1016.89 1017.53 1018.15 1018.74 1019.30 1019.86 1020.41 1020.96 1021.51 1022.08 1022.65 1023.23 1023.82 1024.41 1025.00 1025.59 1026.18 1026.76 1027.32 1027.84 1028.31 1028.71 1029.04 1029.27 1029.42 1029.49 1029.50
1007.57 1008.41 1009.21 1009.95 1010.60 1011.15 1011.61 1012.01 1012.37 1012.74 1013.13 1013.57 1014.06 1014.60 1015.18 1015.78 1016.40 1017.02 1017.63 1018.23 1018.83 1019.43 1020.03 1020.62 1021.22 1021.81 1022.39 1022.97 1023.53 1024.09 1024.64 1025.19 1025.75 1026.31 1026.86 1027.39 1027.89 1028.34 1028.72 1029.02 1029.24 1029.38 1029.45
1007.18 1008.08 1008.94 1009.71 1010.38 1010.95 1011.42 1011.83 1012.20 1012.57 1012.94 1013.35 1013.80 1014.30 1014.82 1015.38 1015.94 1016.52 1017.12 1017.72 1018.33 1018.95 1019.58 1020.21 1020.83 1021.45 1022.05 1022.62 1023.16 1023.70 1024.22 1024.74 1025.26 1025.80 1026.34 1026.88 1027.41 1027.90 1028.34 1028.71 1029.01 1029.23 1029.37
1006.74 1007.69 1008.59 1009.40 1010.10 1010.69 1011.18 1011.61 1011.99 1012.36 1012.74 1013.14 1013.57 1014.02 1014.51 1015.01 1015.54 1016.08 1016.63 1017.22 1017.82 1018.45 1019.10 1019.76 1020.41 1021.05 1021.66 1022.24 1022.79 1023.31 1023.81 1024.30 1024.81 1025.32 1025.86 1026.40 1026.95 1027.47 1027.96 1028.40 1028.77 1029.06 1029.28
1006.23 1007.24 1008.17 1009.01 1009.72 1010.34 1010.85 1011.30 1011.71 1012.11 1012.50 1012.91 1013.33 1013.77 1014.23 1014.70 1015.18 1015.68 1016.20 1016.76 1017.36 1017.99 1018.65 1019.33 1020.01 1020.68 1021.32 1021.93 1022.49 1023.01 1023.51 1023.99 1024.48 1024.98 1025.50 1026.04 1026.59 1027.14 1027.66 1028.14 1028.56 1028.90 1029.18
1005.69 1006.72 1007.67 1008.53 1009.27 1009.90 1010.45 1010.93 1011.37 1011.80 1012.22 1012.65 1013.08 1013.52 1013.96 1014.41 1014.86 1015.33 1015.83 1016.37 1016.96 1017.59 1018.27 1018.98 1019.69 1020.41 1021.09 1021.73 1022.33 1022.88 1023.39 1023.87 1024.36 1024.84 1025.35 1025.87 1026.41 1026.94 1027.47 1027.96 1028.39 1028.77 1029.08
1005.13 1006.16 1007.13 1007.99 1008.75 1009.41 1009.98 1010.50 1010.99 1011.45 1011.91 1012.36 1012.81 1013.26 1013.70 1014.14 1014.58 1015.04 1015.52 1016.05 1016.64 1017.28 1017.98 1018.72 1019.49 1020.25 1020.99 1021.69 1022.33 1022.92 1023.46 1023.96 1024.44 1024.91 1025.39 1025.88 1026.38 1026.89 1027.38 1027.84 1028.27 1028.64 1028.95
1004.58 1005.61 1006.57 1007.45 1008.22 1008.90 1009.50 1010.05 1010.57 1011.07 1011.56 1012.04 1012.52 1012.98 1013.43 1013.87 1014.31 1014.77 1015.26 1015.79 1016.39 1017.05 1017.78 1018.56 1019.37 1020.19 1021.00 1021.75 1022.46 1023.10 1023.67 1024.20 1024.68 1025.14 1025.59 1026.03 1026.48 1026.92 1027.35 1027.76 1028.14 1028.48 1028.77
1004.08 1005.10 1006.05 1006.93 1007.71 1008.41 1009.04 1009.62 1010.16 1010.69 1011.21 1011.71 1012.20 1012.68 1013.14 1013.60 1014.05 1014.51 1015.02 1015.57 1016.18 1016.87 1017.64 1018.45 1019.31 1020.19 1021.04 1021.86 1022.62 1023.31 1023.93 1024.48 1024.97 1025.41 1025.82 1026.21 1026.59 1026.96 1027.31 1027.65 1027.97 1028.25 1028.50
1003.64 1004.65 1005.60 1006.47 1007.27 1007.98 1008.63 1009.22 1009.78 1010.33 1010.85 1011.37 1011.87 1012.36 1012.84 1013.31 1013.78 1014.27 1014.79 1015.36 1016.00 1016.71 1017.50 1018.35 1019.24 1020.15 1021.05 1021.92 1022.72 1023.46 1024.11 1024.68 1025.17 1025.60 1025.98 1026.32 1026.64 1026.93 1027.20 1027.46 1027.70 1027.93 1028.14
1003.28 1004.26 1005.21 1006.09 1006.89 1007.61 1008.27 1008.88 1009.44 1009.99 1010.51 1011.03 1011.54 1012.04 1012.53 1013.01 1013.51 1014.02 1014.57 1015.16 1015.82 1016.55 1017.34 1018.20 1019.10 1020.03 1020.95 1021.83 1022.67 1023.43 1024.10 1024.69 1025.19 1025.62 1025.98 1026.28 1026.54 1026.76 1026.97 1027.16 1027.34 1027.51 1027.68
1002.95 1003.93 1004.87 1005.75 1006.56 1007.30 1007.96 1008.56 1009.13 1009.66 1010.18 1010.70 1011.20 1011.71 1012.22 1012.73 1013.25 1013.79 1014.36 1014.97 1015.64 1016.37 1017.15 1017.99 1018.88 1019.78 1020.68 1021.57 1022.40 1023.17 1023.86 1024.46 1024.97 1025.40 1025.75 1026.03 1026.26 1026.45 1026.61 1026.75 1026.88 1027.02 1027.17
1002.63 1003.60 1004.54 1005.42 1006.24 1006.98 1007.64 1008.24 1008.80 1009.33 1009.84 1010.36 1010.87 1011.39 1011.92 1012.46 1013.01 1013.58 1014.18 1014.81 1015.47 1016.18 1016.94 1017.73 1018.57 1019.42 1020.28 1021.13 1021.94 1022.70 1023.39 1024.00 1024.53 1024.97 1025.33 1025.62 1025.84 1026.02 1026.16 1026.27 1026.39 1026.51 1026.65
1002.27 1003.22 1004.16 1005.04 1005.86 1006.61 1007.27 1007.88 1008.43 1008.96 1009.47 1009.99 1010.52 1011.07 1011.63 1012.21 1012.80 1013.41 1014.03 1014.67 1015.32 1016.00 1016.71 1017.44 1018.21 1018.99 1019.78 1020.56 1021.33 1022.07 1022.75 1023.37 1023.92 1024.39 1024.78 1025.09 1025.33 1025.52 1025.66 1025.78 1025.90 1026.02 1026.16
1001.83 1002.76 1003.69 1004.57 1005.40 1006.14 1006.82 1007.43 1007.99 1008.52 1009.05 1009.59 1010.15 1010.73 1011.34 1011.97 1012.61 1013.25 1013.90 1014.54 1015.19 1015.83 1016.48 1017.14 1017.82 1018.51 1019.22 1019.94 1020.66 1021.36 1022.03 1022.65 1023.22 1023.72 1024.15 1024.50 1024.78 1025.00 1025.17 1025.31 1025.44 1025.58 1025.74
1001.29 1002.20 1003.11 1004.00 1004.82 1005.58 1006.26 1006.88 1007.45 1008.01 1008.56 1009.13 1009.72 1010.35 1011.01 1011.69 1012.38 1013.07 1013.75 1014.40 1015.04 1015.65 1016.24 1016.83 1017.42 1018.03 1018.66 1019.30 1019.96 1020.62 1021.28 1021.91 1022.50 1023.03 1023.50 1023.90 1024.22 1024.48 1024.69 1024.86 1025.02 1025.17 1025.35
1000.68 1001.56 1002.46 1003.34 1004.16 1004.92 1005.61 1006.25 1006.84 1007.41 1007.99 1008.59 1009.23 1009.90 1010.62 1011.35 1012.09 1012.82 1013.53 1014.19 1014.82 1015.40 1015.95 1016.48 1017.00 1017.53 1018.08 1018.66 1019.27 1019.90 1020.54 1021.17 1021.78 1022.34 1022.85 1023.28 1023.65 1023.95 1024.19 1024.40 1024.58 1024.76 1024.96
1000.02 1000.88 1001.77 1002.64 1003.46 1004.23 1004.92 1005.57 1006.17 1006.76 1007.36 1007.99 1008.66 1009.37 1010.12 1010.89 1011.68 1012.44 1013.17 1013.85 1014.47 1015.04 1015.56 1016.04 1016.51 1016.99 1017.49 1018.02 1018.58 1019.18 1019.81 1020.44 1021.05 1021.64 1022.17 1022.64 1023.04 1023.37 1023.64 1023.87 1024.08 1024.29 1024.50
999.36 1000.21 1001.09 1001.96 1002.78 1003.54 1004.24 1004.89 1005.50 1006.09 1006.70 1007.33 1008.01 1008.74 1009.51 1010.30 1011.10 1011.89 1012.63 1013.33 1013.95 1014.51 1015.02 1015.48 1015.92 1016.37 1016.83 1017.32 1017.86 1018.44 1019.05 1019.67 1020.28 1020.88 1021.42 1021.90 1022.32 1022.68 1022.97 1023.23 1023.46 1023.68 1023.92
998.74 999.59 1000.47 1001.33 1002.16 1002.92 1003.62 1004.26 1004.86 1005.44 1006.03 1006.65 1007.32 1008.03 1008.79 1009.58 1010.38 1011.17 1011.92 1012.61 1013.24 1013.81 1014.31 1014.77 1015.20 1015.63 1016.08 1016.56 1017.08 1017.64 1018.23 1018.84 1019.44 1020.03 1020.57 1021.06 1021.48 1021.85 1022.16 1022.43 1022.68 1022.93 1023.19
998.17 999.03 999.91 1000.79 1001.61 1002.37 1003.06 1003.69 1004.27 1004.82 1005.38 1005.97 1006.60 1007.28 1008.00 1008.76 1009.54 1010.31 1011.05 1011.74 1012.38 1012.95 1013.46 1013.93 1014.37 1014.80 1015.24 1015.72 1016.22 1016.77 1017.34 1017.93 1018.51 1019.08 1019.61 1020.09 1020.51 1020.88 1021.20 1021.48 1021.75 1022.02 1022.31
997.62 998.49 999.39 1000.28 1001.11 1001.86 1002.55 1003.15 1003.71 1004.24 1004.76 1005.30 1005.88 1006.51 1007.18 1007.90 1008.64 1009.38 1010.10 1010.78 1011.42 1011.99 1012.52 1013.00 1013.46 1013.90 1014.35 1014.82 1015.32 1015.84 1016.39 1016.96 1017.52 1018.06 1018.57 1019.03 1019.44 1019.81 1020.14 1020.44 1020.72 1021.01 1021.32
Thickness
5665 5662 5659 5657 5654 5652 5650 5648 5646 5645 5643 5642 5640 5639 5638 5637 5636 5635 5634 5634 5632 5630 5629 5627 5625 5623 5622 5620 5618 5616 5615 5614 5612 5612 5613 5615 5616 5616 5616 5617 5617 5617 5617
5661 5658 5655 5653 5651 5648 5646 5644 5643 5641 5640 5638 5637 5635 5634 5633 5632 5631 5630 5629 5628 5626 5624 5623 5620 5618 5616 5614 5613 5612 5611 5610 5609 5608 5608 5609 5610 5610 5610 5610 5610 5610 5610
5657 5654 5651 5648 5646 5644 5642 5641 5639 5637 5635 5633 5632 5630 5629 5628 5627 5626 5626 5625 5624 5623 5621 5619 5616 5614 5612 5610 5609 5607 5606 5606 5605 5604 5603 5603 5603 5603 5603 5604 5604 5603 5604
5652 5649 5646 5644 5642 5640 5639 5637 5635 5633 5631 5629 5627 5625 5625 5624 5623 5622 5622 5620 5620 5618 5617 5615 5613 5611 5609 5607 5606 5604 5602 5601 5600 5599 5598 5597 5597 5597 5596 5596 5596 5596 5596
5647 5644 5642 5640 5638 5636 5634 5632 5630 5628 5627 5625 5622 5621 5620 5619 5619 5618 5617 5616 5615 5613 5612 5611 5610 5609 5608 5606 5604 5601 5599 5597 5595 5594 5593 5592 5591 5590 5590 5590 5589 5588 5588
5642 5640 5638 5635 5633 5631 5629 5627 5625 5623 5621 5619 5617 5616 5615 5615 5615 5614 5613 5611 5610 5608 5607 5606 5605 5605 5604 5603 5602 5600 5598 5596 5593 5591 5590 5588 5588 5587 5585 5584 5582 5581 5581
5637 5635 5632 5630 5628 5627 5625 5622 5620 5618 5616 5614 5613 5611 5610 5610 5610 5609 5608 5606 5605 5603 5602 5601 5601 5601 5600 5598 5597 5596 5595 5594 5594 5591 5588 5587 5586 5585 5582 5579 5577 5576 5575
5632 5630 5627 5625 5623 5621 5619 5617 5615 5613 5611 5609 5608 5607 5606 5606 5605 5605 5603 5601 5600 5599 5597 5596 5596 5595 5595 5594 5593 5591 5589 5589 5589 5588 5587 5585 5584 5582 5580 5577 5574 5571 5569
5627 5625 5624 5622 5619 5616 5614 5611 5609 5607 5605 5604 5603 5602 5601 5600 5600 5599 5598 5596 5594 5593 5592 5591 5590 5590 5591 5590 5588 5585 5584 5583 5583 5583 5582 5580 5579 5577 5574 5571 5567 5565 5563
5623 5621 5619 5617 5615 5612 5609 5607 5604 5602 5600 5599 5597 5597 5596 5595 5595 5594 5593 5591 5589 5587 5586 5586 5585 5585 5585 5585 5583 5580 5578 5578 5577 5576 5574 5573 5571 5569 5567 5565 5562 5559 5556
5619 5616 5613 5611 5609 5607 5604 5601 5598 5596 5594 5592 5591 5590 5590 5589 5589 5589 5588 5585 5584 5582 5580 5579 5579 5580 5580 5579 5578 5576 5575 5573 5571 5569 5567 5565 5563 5562 5560 5558 5556 5553 5551
5612 5609 5607 5605 5604 5602 5598 5595 5592 5590 5588 5586 5585 5583 5583 5583 5583 5583 5582 5581 5579 5577 5575 5574 5574 5574 5573 5573 5571 5570 5569 5567 5563 5561 5559 5557 5555 5554 5553 5551 5549 5548 5546
5605 5603 5600 5599 5597 5595 5591 5588 5585 5583 5581 5580 5579 5578 5577 5577 5577 5577 5577 5576 5574 5572 5571 5570 5569 5568 5567 5565 5564 5563 5561 5558 5556 5554 5552 5550 5549 5548 5546 5545 5543 5541 5540
5599 5596 5593 5591 5589 5588 5586 5583 5580 5578 5576 5575 5574 5572 5571 5571 5571 5570 5569 5568 5568 5566 5565 5564 5563 5561 5559 5558 5556 5554 5552 5550 5548 5547 5545 5544 5542 5541 5539 5538 5536 5535 5533
5592 5590 5587 5585 5582 5580 5579 5577 5575 5574 5572 5571 5570 5568 5566 5566 5567 5566 5564 5563 5561 5560 5558 5556 5554 5553 5551 5549 5547 5546 5544 5543 5541 5540 5538 5537 5536 5534 5533 5531 5530 5528 5526
5585 5582 5580 5578 5576 5574 5571 5570 5569 5568 5567 5566 5565 5564 5563 5563 5562 5561 5560 5559 5557 5555 5551 5549 5547 5545 5544 5543 5540 5539 5537 5536 5534 5533 5532 5531 5529 5528 5527 5525 5523 5522 5521
5579 5576 5574 5572 5570 5567 5565 5563 5561 5560 5559 5559 5558 5557 5556 5556 5555 5554 5553 5552 5550 5548 5544 5542 5540 5538 5537 5536 5534 5532 5531 5529 5528 5527 5526 5525 5524 5522 5521 5519 5518 5516 5515
5572 5571 5568 5565 5563 5561 5558 5556 5555 5553 5551 5550 5550 5549 5548 5548 5547 5546 5545 5543 5540 5539 5537 5535 5533 5531 5530 5529 5528 5526 5525 5523 5521 5520 5519 5518 5517 5516 5515 5514 5512 5511 5510
5565 5563 5560 5558 5555 5554 5551 5549 5547 5545 5543 5542 5540 5540 5540 5539 5538 5536 5535 5533 5532 5530 5528 5527 5526 5524 5523 5522 5521 5519 5518 5517 5515 5513 5512 5511 5510 5509 5508 5507 5506 5505 5503
5557 5556 5554 5551 5548 5546 5544 5542 5540 5538 5536 5534 5532 5531 5530 5528 5527 5526 5525 5524 5523 5522 5521 5520 5519 5518 5516 5515 5514 5513 5511 5510 5509 5507 5506 5504 5503 5502 5502 5501 5500 5498 5497
5549 5548 5547 5544 5541 5539 5537 5535 5533 5531 5529 5527 5525 5525 5523 5520 5519 5518 5517 5516 5515 5515 5514 5512 5512 5510 5509 5508 5507 5506 5505 5504 5502 5501 5500 5498 5497 5496 5495 5494 5493 5492 5491
5541 5539 5537 5535 5533 5531 5529 5527 5524 5523 5521 5519 5518 5516 5515 5513 5511 5511 5510 5509 5508 5507 5506 5505 5504 5504 5503 5502 5501 5500 5498 5497 5496 5494 5493 5492 5491 5490 5489 5487 5486 5486 5485
5532 5530 5528 5526 5524 5522 5520 5517 5515 5514 5512 5511 5509 5507 5506 5505 5503 5503 5502 5501 5500 5500 5499 5498 5497 5497 5496 5495 5494 5493 5492 5491 5490 5488 5487 5486 5484 5483 5482 5481 5481 5480 5479
5523 5521 5519 5517 5514 5512 5510 5508 5507 5505 5504 5503 5502 5500 5498 5497 5496 5496 5495 5494 5493 5492 5491 5490 5490 5489 5489 5488 5487 5485 5485 5484 5483 5482 5481 5479 5478 5476 5475 5474 5474 5474 5473
5514 5512 5509 5507 5505 5503 5501 5499 5498 5497 5496 5495 5493 5492 5491 5490 5489 5488 5487 5486 5485 5484 5484 5483 5482 5482 5481 5480 5480 5478 5478 5477 5476 5475 5474 5472 5471 5469 5468 5467 5467 5467 5466
5505 5503 5500 5498 5496 5494 5492 5491 5490 5489 5488 5487 5486 5484 5483 5482 5481 5480 5479 5478 5477 5477 5476 5476 5475 5475 5474 5474 5473 5472 5471 5470 5469 5468 5466 5465 5464 5462 5461 5460 5460 5459 5458